Location: Recife
(8.0585°S, 34.8848°W)
Time: 10:58:53
(UTC-03:00)

Courier 1B Rocket - Pass Details

Date: 20 April 2026
Orbit: 920 x 1201 km, 28.2° (Epoch: 13 May)

Event Time Altitude Azimuth Distance (km) Brightness Sun altitude
Rises 01:31:25 0° 311° (NW) 3,585 - -57.1°
Reaches altitude 10° 01:34:09 10° 317° (NW) 2,621 - -56.4°
Maximum altitude 01:40:09 48° 30° (NNE) 1,173 - -55.0°
Drops below altitude 10° 01:46:09 10° 104° (ESE) 2,619 - -53.5°
Exits shadow 01:47:42 - 107° (ESE) 3,160 8.1 -53.1°
Sets 01:48:52 0° 109° (ESE) 3,582 8.5 -52.8°
